Year,Month,Day,Hour,Minute,Value (Times are PST for windgust in km/hr)
2016,08,21,00,09,1.60
2016,08,21,00,10,3.20
2016,08,21,00,11,4.80
2016,08,21,00,12,3.20
2016,08,21,00,13,3.20
2016,08,21,00,14,3.20
2016,08,21,00,15,3.20
2016,08,21,00,16,1.60
2016,08,21,00,17,1.60
2016,08,21,00,18,3.20
2016,08,21,00,19,1.60
2016,08,21,00,25,1.60
2016,08,21,00,26,1.60
2016,08,21,00,29,1.60
2016,08,21,00,30,1.60
2016,08,21,00,31,3.20
2016,08,21,00,32,3.20
2016,08,21,00,33,1.60
2016,08,21,00,48,1.60
2016,08,21,00,49,1.60
2016,08,21,00,51,1.60
2016,08,21,00,52,1.60
2016,08,21,00,57,1.60
2016,08,21,00,58,1.60
2016,08,21,00,59,3.20
2016,08,21,01,00,3.20
2016,08,21,01,01,1.60
2016,08,21,01,02,1.60
2016,08,21,01,03,3.20
2016,08,21,01,04,1.60
2016,08,21,01,05,3.20
2016,08,21,01,06,3.20
2016,08,21,01,07,3.20
2016,08,21,01,08,1.60
2016,08,21,01,10,1.60
2016,08,21,01,11,3.20
2016,08,21,01,12,3.20
2016,08,21,01,13,1.60
2016,08,21,01,15,1.60
2016,08,21,01,16,1.60
2016,08,21,01,20,1.60
2016,08,21,01,21,1.60
2016,08,21,01,22,1.60
2016,08,21,02,08,1.60
2016,08,21,02,09,1.60
2016,08,21,02,10,1.60
2016,08,21,02,11,1.60
2016,08,21,02,13,1.60
2016,08,21,02,14,1.60
2016,08,21,02,15,1.60
2016,08,21,02,17,1.60
2016,08,21,02,37,1.60
2016,08,21,02,38,1.60
2016,08,21,02,39,1.60
2016,08,21,02,40,1.60
2016,08,21,02,59,1.60
2016,08,21,03,00,1.60
2016,08,21,03,01,1.60
2016,08,21,03,33,1.60
2016,08,21,03,34,3.20
2016,08,21,03,35,3.20
2016,08,21,03,38,3.20
2016,08,21,03,39,3.20
2016,08,21,03,40,6.40
2016,08,21,03,41,6.40
2016,08,21,03,42,8.10
2016,08,21,03,43,6.40
2016,08,21,03,44,3.20
2016,08,21,03,45,4.80
2016,08,21,03,46,3.20
2016,08,21,03,47,1.60
2016,08,21,03,48,1.60
2016,08,21,03,49,1.60
2016,08,21,03,52,1.60
2016,08,21,03,54,1.60
2016,08,21,03,56,3.20
2016,08,21,03,57,3.20
2016,08,21,03,58,3.20
2016,08,21,03,59,3.20
2016,08,21,04,00,3.20
2016,08,21,04,01,1.60
2016,08,21,04,02,1.60
2016,08,21,04,03,1.60
2016,08,21,04,04,1.60
2016,08,21,04,21,1.60
2016,08,21,04,22,4.80
2016,08,21,04,23,4.80
2016,08,21,04,24,1.60
2016,08,21,04,36,1.60
2016,08,21,04,37,1.60
2016,08,21,04,38,3.20
2016,08,21,04,39,1.60
2016,08,21,04,40,1.60
2016,08,21,04,48,1.60
2016,08,21,04,59,4.80
2016,08,21,05,00,3.20
2016,08,21,05,01,3.20
2016,08,21,05,02,1.60
2016,08,21,05,03,4.80
2016,08,21,05,04,6.40
2016,08,21,05,05,3.20
2016,08,21,05,06,4.80
2016,08,21,05,07,3.20
2016,08,21,05,08,4.80
2016,08,21,05,09,8.10
2016,08,21,05,10,9.60
2016,08,21,05,11,4.80
2016,08,21,05,12,4.80
2016,08,21,05,13,3.20
2016,08,21,05,14,6.40
2016,08,21,05,15,8.10
2016,08,21,05,16,8.10
2016,08,21,05,17,4.80
2016,08,21,05,18,4.80
2016,08,21,05,19,9.60
2016,08,21,05,20,11.30
2016,08,21,05,21,4.80
2016,08,21,05,22,8.10
2016,08,21,05,23,8.10
2016,08,21,05,24,3.20
2016,08,21,05,25,4.80
2016,08,21,05,26,3.20
2016,08,21,05,29,3.20
2016,08,21,05,30,3.20
2016,08,21,05,31,3.20
2016,08,21,05,32,6.40
2016,08,21,05,33,4.80
2016,08,21,05,34,3.20
2016,08,21,05,35,6.40
2016,08,21,05,36,11.30
2016,08,21,05,37,11.30
2016,08,21,05,38,11.30
2016,08,21,05,39,12.90
2016,08,21,05,40,14.50
2016,08,21,05,41,17.70
2016,08,21,05,42,17.70
2016,08,21,05,43,19.30
2016,08,21,05,44,17.70
2016,08,21,05,45,20.90
2016,08,21,05,46,20.90
2016,08,21,05,47,20.90
2016,08,21,05,48,22.50
2016,08,21,05,49,22.50
2016,08,21,05,50,17.70
2016,08,21,05,51,16.10
2016,08,21,05,52,16.10
2016,08,21,05,53,19.30
2016,08,21,05,54,19.30
2016,08,21,05,55,14.50
2016,08,21,05,56,14.50
2016,08,21,05,57,14.50
2016,08,21,05,58,12.90
2016,08,21,05,59,14.50
2016,08,21,06,00,17.70
2016,08,21,06,01,17.70
2016,08,21,06,02,19.30
2016,08,21,06,03,16.10
2016,08,21,06,04,17.70
2016,08,21,06,05,17.70
2016,08,21,06,06,16.10
2016,08,21,06,07,16.10
2016,08,21,06,08,17.70
2016,08,21,06,09,16.10
2016,08,21,06,10,12.90
2016,08,21,06,11,11.30
2016,08,21,06,12,8.10
2016,08,21,06,13,8.10
2016,08,21,06,14,9.60
2016,08,21,06,15,6.40
2016,08,21,06,16,8.10
2016,08,21,06,17,8.10
2016,08,21,06,18,9.60
2016,08,21,06,19,8.10
2016,08,21,06,20,11.30
2016,08,21,06,21,9.60
2016,08,21,06,22,9.60
2016,08,21,06,23,14.50
2016,08,21,06,24,16.10
2016,08,21,06,25,12.90
2016,08,21,06,26,9.60
2016,08,21,06,27,8.10
2016,08,21,06,28,6.40
2016,08,21,06,29,6.40
2016,08,21,06,30,6.40
2016,08,21,06,31,1.60
2016,08,21,06,32,4.80
2016,08,21,06,33,4.80
2016,08,21,06,34,4.80
2016,08,21,06,35,8.10
2016,08,21,06,36,8.10
2016,08,21,06,37,12.90
2016,08,21,06,38,14.50
2016,08,21,06,39,14.50
2016,08,21,06,40,14.50
2016,08,21,06,41,12.90
2016,08,21,06,42,11.30
2016,08,21,06,43,11.30
2016,08,21,06,44,12.90
2016,08,21,06,45,11.30
2016,08,21,06,46,12.90
2016,08,21,06,47,11.30
2016,08,21,06,48,14.50
2016,08,21,06,49,12.90
2016,08,21,06,50,11.30
2016,08,21,06,51,9.60
2016,08,21,06,52,12.90
2016,08,21,06,53,14.50
2016,08,21,06,54,12.90
2016,08,21,06,55,11.30
2016,08,21,06,56,14.50
2016,08,21,06,57,14.50
2016,08,21,06,58,16.10
2016,08,21,06,59,11.30
2016,08,21,07,00,14.50
2016,08,21,07,01,12.90
2016,08,21,07,02,9.60
2016,08,21,07,03,12.90
2016,08,21,07,04,9.60
2016,08,21,07,05,9.60
2016,08,21,07,06,8.10
2016,08,21,07,07,8.10
2016,08,21,07,08,8.10
2016,08,21,07,09,14.50
2016,08,21,07,10,12.90
2016,08,21,07,11,9.60
2016,08,21,07,12,6.40
2016,08,21,07,13,1.60
2016,08,21,07,14,9.60
2016,08,21,07,15,16.10
2016,08,21,07,16,14.50
2016,08,21,07,17,12.90
2016,08,21,07,18,12.90
2016,08,21,07,19,14.50
2016,08,21,07,20,14.50
2016,08,21,07,21,14.50
2016,08,21,07,22,16.10
2016,08,21,07,23,16.10
2016,08,21,07,24,12.90
2016,08,21,07,25,16.10
2016,08,21,07,26,17.70
2016,08,21,07,27,14.50
2016,08,21,07,28,24.20
2016,08,21,07,29,17.70
2016,08,21,07,30,19.30
2016,08,21,07,31,16.10
2016,08,21,07,32,14.50
2016,08,21,07,33,12.90
2016,08,21,07,34,11.30
2016,08,21,07,35,14.50
2016,08,21,07,36,14.50
2016,08,21,07,37,14.50
2016,08,21,07,38,14.50
2016,08,21,07,39,16.10
2016,08,21,07,40,20.90
2016,08,21,07,41,19.30
2016,08,21,07,42,17.70
2016,08,21,07,43,14.50
2016,08,21,07,44,11.30
2016,08,21,07,45,11.30
2016,08,21,07,46,11.30
2016,08,21,07,47,20.90
2016,08,21,07,48,22.50
2016,08,21,07,49,24.20
2016,08,21,07,50,19.30
2016,08,21,07,51,20.90
2016,08,21,07,52,17.70
2016,08,21,07,53,17.70
2016,08,21,07,54,20.90
2016,08,21,07,55,19.30
2016,08,21,07,56,19.30
2016,08,21,07,57,16.10
2016,08,21,07,58,12.90
2016,08,21,07,59,14.50
2016,08,21,08,00,12.90
2016,08,21,08,01,17.70
2016,08,21,08,02,14.50
2016,08,21,08,03,14.50
2016,08,21,08,04,17.70
2016,08,21,08,05,17.70
2016,08,21,08,06,14.50
2016,08,21,08,07,22.50
2016,08,21,08,08,14.50
2016,08,21,08,09,19.30
2016,08,21,08,10,16.10
2016,08,21,08,11,12.90
2016,08,21,08,12,14.50
2016,08,21,08,13,14.50
2016,08,21,08,14,12.90
2016,08,21,08,15,17.70
2016,08,21,08,16,17.70
2016,08,21,08,17,22.50
2016,08,21,08,18,20.90
2016,08,21,08,19,16.10
2016,08,21,08,20,24.20
2016,08,21,08,21,17.70
2016,08,21,08,22,24.20
2016,08,21,08,23,16.10
2016,08,21,08,24,19.30
2016,08,21,08,25,22.50
2016,08,21,08,26,19.30
2016,08,21,08,27,17.70
2016,08,21,08,28,19.30
2016,08,21,08,29,17.70
2016,08,21,08,30,17.70
2016,08,21,08,31,22.50
2016,08,21,08,32,19.30
2016,08,21,08,33,24.20
2016,08,21,08,34,16.10
2016,08,21,08,35,20.90
2016,08,21,08,36,19.30
2016,08,21,08,37,17.70
2016,08,21,08,38,14.50
2016,08,21,08,39,24.20
2016,08,21,08,40,25.70
2016,08,21,08,41,33.80
2016,08,21,08,42,32.20
2016,08,21,08,43,17.70
2016,08,21,08,44,22.50
2016,08,21,08,45,17.70
2016,08,21,08,46,20.90
2016,08,21,08,47,24.20
2016,08,21,08,48,22.50
2016,08,21,08,49,29.00
2016,08,21,08,50,30.60
2016,08,21,08,51,27.40
2016,08,21,08,52,29.00
2016,08,21,08,53,22.50
2016,08,21,08,54,19.30
2016,08,21,08,55,29.00
2016,08,21,08,56,24.20
2016,08,21,08,57,20.90
2016,08,21,08,58,25.70
2016,08,21,08,59,25.70
2016,08,21,09,00,19.30
2016,08,21,09,01,24.20
2016,08,21,09,02,22.50
2016,08,21,09,03,22.50
2016,08,21,09,04,19.30
2016,08,21,09,05,22.50
2016,08,21,09,06,19.30
2016,08,21,09,07,24.20
2016,08,21,09,08,16.10
2016,08,21,09,09,24.20
2016,08,21,09,10,27.40
2016,08,21,09,11,14.50
2016,08,21,09,12,17.70
2016,08,21,09,13,22.50
2016,08,21,09,14,19.30
2016,08,21,09,15,24.20
2016,08,21,09,16,20.90
2016,08,21,09,17,19.30
2016,08,21,09,18,17.70
2016,08,21,09,19,22.50
2016,08,21,09,20,17.70
2016,08,21,09,21,16.10
2016,08,21,09,22,8.10
2016,08,21,09,23,11.30
2016,08,21,09,24,19.30
2016,08,21,09,25,16.10
2016,08,21,09,26,14.50
2016,08,21,09,27,12.90
2016,08,21,09,28,24.20
2016,08,21,09,29,22.50
2016,08,21,09,30,20.90
2016,08,21,09,31,25.70
2016,08,21,09,32,17.70
2016,08,21,09,33,17.70
2016,08,21,09,34,16.10
2016,08,21,09,35,19.30
2016,08,21,09,36,22.50
2016,08,21,09,37,14.50
2016,08,21,09,38,16.10
2016,08,21,09,39,14.50
2016,08,21,09,40,17.70
2016,08,21,09,41,17.70
2016,08,21,09,42,19.30
2016,08,21,09,43,25.70
2016,08,21,09,44,17.70
2016,08,21,09,45,24.20
2016,08,21,09,46,12.90
2016,08,21,09,47,11.30
2016,08,21,09,48,9.60
2016,08,21,09,49,17.70
2016,08,21,09,50,16.10
2016,08,21,09,51,16.10
2016,08,21,09,52,17.70
2016,08,21,09,53,14.50
2016,08,21,09,54,14.50
2016,08,21,09,55,17.70
2016,08,21,09,56,20.90
2016,08,21,09,57,22.50
2016,08,21,09,58,19.30
2016,08,21,09,59,16.10
2016,08,21,10,00,20.90
2016,08,21,10,01,16.10
2016,08,21,10,02,20.90
2016,08,21,10,03,25.70
2016,08,21,10,04,16.10
2016,08,21,10,05,12.90
2016,08,21,10,06,24.20
2016,08,21,10,07,11.30
2016,08,21,10,08,32.20
2016,08,21,10,09,19.30
2016,08,21,10,10,24.20
2016,08,21,10,11,27.40
2016,08,21,10,12,25.70
2016,08,21,10,13,22.50
2016,08,21,10,14,24.20
2016,08,21,10,15,25.70
2016,08,21,10,16,30.60
2016,08,21,10,17,45.10
2016,08,21,10,18,37.00
2016,08,21,10,19,37.00
2016,08,21,10,20,35.40
2016,08,21,10,21,35.40
2016,08,21,10,22,29.00
2016,08,21,10,23,27.40
2016,08,21,10,24,30.60
2016,08,21,10,25,32.20
2016,08,21,10,26,30.60
2016,08,21,10,27,37.00
2016,08,21,10,28,37.00
2016,08,21,10,29,29.00
2016,08,21,10,30,35.40
2016,08,21,10,31,33.80
2016,08,21,10,32,33.80
2016,08,21,10,33,38.60
2016,08,21,10,34,24.20
2016,08,21,10,35,29.00
2016,08,21,10,36,33.80
2016,08,21,10,37,33.80
2016,08,21,10,38,35.40
2016,08,21,10,39,41.80
2016,08,21,10,40,37.00
2016,08,21,10,41,38.60
2016,08,21,10,42,40.20
2016,08,21,10,43,41.80
2016,08,21,10,44,35.40
2016,08,21,10,45,35.40
2016,08,21,10,46,33.80
2016,08,21,10,47,29.00
2016,08,21,10,48,37.00
2016,08,21,10,49,40.20
2016,08,21,10,50,33.80
2016,08,21,10,51,32.20
2016,08,21,10,52,32.20
2016,08,21,10,53,33.80
2016,08,21,10,54,33.80
2016,08,21,10,55,30.60
2016,08,21,10,56,35.40
2016,08,21,10,57,35.40
2016,08,21,10,58,33.80
2016,08,21,10,59,32.20
2016,08,21,11,00,30.60
2016,08,21,11,01,27.40
2016,08,21,11,02,32.20
2016,08,21,11,03,27.40
2016,08,21,11,04,25.70
2016,08,21,11,05,30.60
2016,08,21,11,06,25.70
2016,08,21,11,07,40.20
2016,08,21,11,08,33.80
2016,08,21,11,09,37.00
2016,08,21,11,10,32.20
2016,08,21,11,11,32.20
2016,08,21,11,12,33.80
2016,08,21,11,13,38.60
2016,08,21,11,14,29.00
2016,08,21,11,15,30.60
2016,08,21,11,16,29.00
2016,08,21,11,17,37.00
2016,08,21,11,18,30.60
2016,08,21,11,19,27.40
2016,08,21,11,20,20.90
2016,08,21,11,21,25.70
2016,08,21,11,22,22.50
2016,08,21,11,23,30.60
2016,08,21,11,24,25.70
2016,08,21,11,25,29.00
2016,08,21,11,26,24.20
2016,08,21,11,27,27.40
2016,08,21,11,28,29.00
2016,08,21,11,29,19.30
2016,08,21,11,30,37.00
2016,08,21,11,31,45.10
2016,08,21,11,32,29.00
2016,08,21,11,33,37.00
2016,08,21,11,34,30.60
2016,08,21,11,35,32.20
2016,08,21,11,36,30.60
2016,08,21,11,37,33.80
2016,08,21,11,38,33.80
2016,08,21,11,39,41.80
2016,08,21,11,40,35.40
2016,08,21,11,41,20.90
2016,08,21,11,42,25.70
2016,08,21,11,43,40.20
2016,08,21,11,44,43.50
2016,08,21,11,45,33.80
2016,08,21,11,46,25.70
2016,08,21,11,47,38.60
2016,08,21,11,48,30.60
2016,08,21,11,49,22.50
2016,08,21,11,50,30.60
2016,08,21,11,51,38.60
2016,08,21,11,52,30.60
2016,08,21,11,53,30.60
2016,08,21,11,54,32.20
2016,08,21,11,55,37.00
2016,08,21,11,56,33.80
2016,08,21,11,57,35.40
2016,08,21,11,58,33.80
2016,08,21,11,59,35.40
2016,08,21,12,00,33.80
2016,08,21,12,01,33.80
2016,08,21,12,02,27.40
2016,08,21,12,03,29.00
2016,08,21,12,04,32.20
2016,08,21,12,05,38.60
2016,08,21,12,06,32.20
2016,08,21,12,07,33.80
2016,08,21,12,08,41.80
2016,08,21,12,09,37.00
2016,08,21,12,10,46.70
2016,08,21,12,11,33.80
2016,08,21,12,12,30.60
2016,08,21,12,13,35.40
2016,08,21,12,14,30.60
2016,08,21,12,15,20.90
2016,08,21,12,16,25.70
2016,08,21,12,17,24.20
2016,08,21,12,18,29.00
2016,08,21,12,19,27.40
2016,08,21,12,20,29.00
2016,08,21,12,21,27.40
2016,08,21,12,22,29.00
2016,08,21,12,23,35.40
2016,08,21,12,24,38.60
2016,08,21,12,25,37.00
2016,08,21,12,26,25.70
2016,08,21,12,27,33.80
2016,08,21,12,28,30.60
2016,08,21,12,29,24.20
2016,08,21,12,30,27.40
2016,08,21,12,31,33.80
2016,08,21,12,32,22.50
2016,08,21,12,33,37.00
2016,08,21,12,34,35.40
2016,08,21,12,35,38.60
2016,08,21,12,36,33.80
2016,08,21,12,37,29.00
2016,08,21,12,38,27.40
2016,08,21,12,39,27.40
2016,08,21,12,40,24.20
2016,08,21,12,41,35.40
2016,08,21,12,42,30.60
2016,08,21,12,43,29.00
2016,08,21,12,44,25.70
2016,08,21,12,45,41.80
2016,08,21,12,46,30.60
2016,08,21,12,47,33.80
2016,08,21,12,48,29.00
2016,08,21,12,49,29.00
2016,08,21,12,50,33.80
2016,08,21,12,51,35.40
2016,08,21,12,52,29.00
2016,08,21,12,53,30.60
2016,08,21,12,54,32.20
2016,08,21,12,55,37.00
2016,08,21,12,56,38.60
2016,08,21,12,57,37.00
2016,08,21,12,58,27.40
2016,08,21,12,59,27.40
2016,08,21,13,00,30.60
2016,08,21,13,01,29.00
2016,08,21,13,02,27.40
2016,08,21,13,03,30.60
2016,08,21,13,04,32.20
2016,08,21,13,05,30.60
2016,08,21,13,06,30.60
2016,08,21,13,07,22.50
2016,08,21,13,08,29.00
2016,08,21,13,09,22.50
2016,08,21,13,10,24.20
2016,08,21,13,11,30.60
2016,08,21,13,12,19.30
2016,08,21,13,13,20.90
2016,08,21,13,14,30.60
2016,08,21,13,15,24.20
2016,08,21,13,16,20.90
2016,08,21,13,17,32.20
2016,08,21,13,18,25.70
2016,08,21,13,19,20.90
2016,08,21,13,20,19.30
2016,08,21,13,21,29.00
2016,08,21,13,22,33.80
2016,08,21,13,23,30.60
2016,08,21,13,24,32.20
2016,08,21,13,25,27.40
2016,08,21,13,26,14.50
2016,08,21,13,27,17.70
2016,08,21,13,28,19.30
2016,08,21,13,29,24.20
2016,08,21,13,30,17.70
2016,08,21,13,31,20.90
2016,08,21,13,32,25.70
2016,08,21,13,33,27.40
2016,08,21,13,34,19.30
2016,08,21,13,35,32.20
2016,08,21,13,36,22.50
2016,08,21,13,37,20.90
2016,08,21,13,38,24.20
2016,08,21,13,39,27.40
2016,08,21,13,40,32.20
2016,08,21,13,41,25.70
2016,08,21,13,42,38.60
2016,08,21,13,43,37.00
2016,08,21,13,44,19.30
2016,08,21,13,45,29.00
2016,08,21,13,46,32.20
2016,08,21,13,47,30.60
2016,08,21,13,48,27.40
2016,08,21,13,49,33.80
2016,08,21,13,50,16.10
2016,08,21,13,51,16.10
2016,08,21,13,52,19.30
2016,08,21,13,53,20.90
2016,08,21,13,54,32.20
2016,08,21,13,55,27.40
2016,08,21,13,56,27.40
2016,08,21,13,57,35.40
2016,08,21,13,58,38.60
2016,08,21,13,59,25.70
2016,08,21,14,00,19.30
2016,08,21,14,01,9.60
2016,08,21,14,02,9.60
2016,08,21,14,03,9.60
2016,08,21,14,04,9.60
2016,08,21,14,05,9.60
2016,08,21,14,06,9.60
2016,08,21,14,07,30.60
2016,08,21,14,08,29.00
2016,08,21,14,09,35.40
2016,08,21,14,10,20.90
2016,08,21,14,11,24.20
2016,08,21,14,12,29.00
2016,08,21,14,13,29.00
2016,08,21,14,14,30.60
2016,08,21,14,15,24.20
2016,08,21,14,16,29.00
2016,08,21,14,17,19.30
2016,08,21,14,18,33.80
2016,08,21,14,19,24.20
2016,08,21,14,20,25.70
2016,08,21,14,21,25.70
2016,08,21,14,22,29.00
2016,08,21,14,23,29.00
2016,08,21,14,24,29.00
2016,08,21,14,25,38.60
2016,08,21,14,26,29.00
2016,08,21,14,27,37.00
2016,08,21,14,28,32.20
2016,08,21,14,29,32.20
2016,08,21,14,30,32.20
2016,08,21,14,31,29.00
2016,08,21,14,32,29.00
2016,08,21,14,33,37.00
2016,08,21,14,34,33.80
2016,08,21,14,35,37.00
2016,08,21,14,36,38.60
2016,08,21,14,37,32.20
2016,08,21,14,38,40.20
2016,08,21,14,39,22.50
2016,08,21,14,40,24.20
2016,08,21,14,41,37.00
2016,08,21,14,42,29.00
2016,08,21,14,43,37.00
2016,08,21,14,44,30.60
2016,08,21,14,45,32.20
2016,08,21,14,46,37.00
2016,08,21,14,47,40.20
2016,08,21,14,48,38.60
2016,08,21,14,49,38.60
2016,08,21,14,50,29.00
2016,08,21,14,51,32.20
2016,08,21,14,52,41.80
2016,08,21,14,53,38.60
2016,08,21,14,54,32.20
2016,08,21,14,55,29.00
2016,08,21,14,56,27.40
2016,08,21,14,57,20.90
2016,08,21,14,58,37.00
2016,08,21,14,59,27.40
2016,08,21,15,00,40.20
2016,08,21,15,01,32.20
2016,08,21,15,02,49.90
2016,08,21,15,03,32.20
2016,08,21,15,04,46.70
2016,08,21,15,05,33.80
2016,08,21,15,06,48.30
2016,08,21,15,07,45.10
2016,08,21,15,08,30.60
2016,08,21,15,09,40.20
2016,08,21,15,10,38.60
2016,08,21,15,11,38.60
2016,08,21,15,12,43.50
2016,08,21,15,13,30.60
2016,08,21,15,14,30.60
2016,08,21,15,15,29.00
2016,08,21,15,16,29.00
2016,08,21,15,17,41.80
2016,08,21,15,18,43.50
2016,08,21,15,19,32.20
2016,08,21,15,20,33.80
2016,08,21,15,21,35.40
2016,08,21,15,22,46.70
2016,08,21,15,23,48.30
2016,08,21,15,24,32.20
2016,08,21,15,25,45.10
2016,08,21,15,26,48.30
2016,08,21,15,27,43.50
2016,08,21,15,28,32.20
2016,08,21,15,29,46.70
2016,08,21,15,30,38.60
2016,08,21,15,31,22.50
2016,08,21,15,32,32.20
2016,08,21,15,33,49.90
2016,08,21,15,34,27.40
2016,08,21,15,35,33.80
2016,08,21,15,36,38.60
2016,08,21,15,37,37.00
2016,08,21,15,38,32.20
2016,08,21,15,39,35.40
2016,08,21,15,40,40.20
2016,08,21,15,41,45.10
2016,08,21,15,42,32.20
2016,08,21,15,43,32.20
2016,08,21,15,44,35.40
2016,08,21,15,45,32.20
2016,08,21,15,46,33.80
2016,08,21,15,47,25.70
2016,08,21,15,48,40.20
2016,08,21,15,49,40.20
2016,08,21,15,50,29.00
2016,08,21,15,51,33.80
2016,08,21,15,52,33.80
2016,08,21,15,53,30.60
2016,08,21,15,54,32.20
2016,08,21,15,55,35.40
2016,08,21,15,56,37.00
2016,08,21,15,57,32.20
2016,08,21,15,58,41.80
2016,08,21,15,59,37.00
2016,08,21,16,00,17.70
2016,08,21,16,01,25.70
2016,08,21,16,02,43.50
2016,08,21,16,03,35.40
2016,08,21,16,04,41.80
2016,08,21,16,05,32.20
2016,08,21,16,06,35.40
2016,08,21,16,07,33.80
2016,08,21,16,08,27.40
2016,08,21,16,09,33.80
2016,08,21,16,10,24.20
2016,08,21,16,11,35.40
2016,08,21,16,12,32.20
2016,08,21,16,13,38.60
2016,08,21,16,14,29.00
2016,08,21,16,15,32.20
2016,08,21,16,16,33.80
2016,08,21,16,17,27.40
2016,08,21,16,18,32.20
2016,08,21,16,19,29.00
2016,08,21,16,20,27.40
2016,08,21,16,21,27.40
2016,08,21,16,22,30.60
2016,08,21,16,23,30.60
2016,08,21,16,24,32.20
2016,08,21,16,25,32.20
2016,08,21,16,26,32.20
2016,08,21,16,27,33.80
2016,08,21,16,28,29.00
2016,08,21,16,29,35.40
2016,08,21,16,30,30.60
2016,08,21,16,31,33.80
2016,08,21,16,32,30.60
2016,08,21,16,33,32.20
2016,08,21,16,34,29.00
2016,08,21,16,35,37.00
2016,08,21,16,36,33.80
2016,08,21,16,37,32.20
2016,08,21,16,38,22.50
2016,08,21,16,39,32.20
2016,08,21,16,40,33.80
2016,08,21,16,41,37.00
2016,08,21,16,42,27.40
2016,08,21,16,43,35.40
2016,08,21,16,44,35.40
2016,08,21,16,45,27.40
2016,08,21,16,46,38.60
2016,08,21,16,47,30.60
2016,08,21,16,48,37.00
2016,08,21,16,49,33.80
2016,08,21,16,50,32.20
2016,08,21,16,51,22.50
2016,08,21,16,52,29.00
2016,08,21,16,53,37.00
2016,08,21,16,54,40.20
2016,08,21,16,55,32.20
2016,08,21,16,56,29.00
2016,08,21,16,57,30.60
2016,08,21,16,58,27.40
2016,08,21,16,59,38.60
2016,08,21,17,00,30.60
2016,08,21,17,01,27.40
2016,08,21,17,02,32.20
2016,08,21,17,03,30.60
2016,08,21,17,04,35.40
2016,08,21,17,05,35.40
2016,08,21,17,06,20.90
2016,08,21,17,07,35.40
2016,08,21,17,08,25.70
2016,08,21,17,09,25.70
2016,08,21,17,10,29.00
2016,08,21,17,11,32.20
2016,08,21,17,12,35.40
2016,08,21,17,13,35.40
2016,08,21,17,14,30.60
2016,08,21,17,15,38.60
2016,08,21,17,16,40.20
2016,08,21,17,17,22.50
2016,08,21,17,18,25.70
2016,08,21,17,19,32.20
2016,08,21,17,20,25.70
2016,08,21,17,21,25.70
2016,08,21,17,22,32.20
2016,08,21,17,23,33.80
2016,08,21,17,24,17.70
2016,08,21,17,25,25.70
2016,08,21,17,26,29.00
2016,08,21,17,27,33.80
2016,08,21,17,28,29.00
2016,08,21,17,29,33.80
2016,08,21,17,30,29.00
2016,08,21,17,31,29.00
2016,08,21,17,32,37.00
2016,08,21,17,33,32.20
2016,08,21,17,34,32.20
2016,08,21,17,35,29.00
2016,08,21,17,36,32.20
2016,08,21,17,37,27.40
2016,08,21,17,38,38.60
2016,08,21,17,39,27.40
2016,08,21,17,40,46.70
2016,08,21,17,41,29.00
2016,08,21,17,42,33.80
2016,08,21,17,43,24.20
2016,08,21,17,44,40.20
2016,08,21,17,45,48.30
2016,08,21,17,46,43.50
2016,08,21,17,47,38.60
2016,08,21,17,48,33.80
2016,08,21,17,49,43.50
2016,08,21,17,50,33.80
2016,08,21,17,51,24.20
2016,08,21,17,52,41.80
2016,08,21,17,53,38.60
2016,08,21,17,54,30.60
2016,08,21,17,55,30.60
2016,08,21,17,56,24.20
2016,08,21,17,57,29.00
2016,08,21,17,58,29.00
2016,08,21,17,59,24.20
2016,08,21,18,00,25.70
2016,08,21,18,01,24.20
2016,08,21,18,02,33.80
2016,08,21,18,03,38.60
2016,08,21,18,04,29.00
2016,08,21,18,05,32.20
2016,08,21,18,06,33.80
2016,08,21,18,07,41.80
2016,08,21,18,08,27.40
2016,08,21,18,09,33.80
2016,08,21,18,10,38.60
2016,08,21,18,11,38.60
2016,08,21,18,12,41.80
2016,08,21,18,13,27.40
2016,08,21,18,14,24.20
2016,08,21,18,15,24.20
2016,08,21,18,16,22.50
2016,08,21,18,17,29.00
2016,08,21,18,18,20.90
2016,08,21,18,19,20.90
2016,08,21,18,20,29.00
2016,08,21,18,21,24.20
2016,08,21,18,22,33.80
2016,08,21,18,23,27.40
2016,08,21,18,24,17.70
2016,08,21,18,25,24.20
2016,08,21,18,26,33.80
2016,08,21,18,27,29.00
2016,08,21,18,28,32.20
2016,08,21,18,29,30.60
2016,08,21,18,30,20.90
2016,08,21,18,31,27.40
2016,08,21,18,32,33.80
2016,08,21,18,33,16.10
2016,08,21,18,34,24.20
2016,08,21,18,35,20.90
2016,08,21,18,36,20.90
2016,08,21,18,37,22.50
2016,08,21,18,38,37.00
2016,08,21,18,39,29.00
2016,08,21,18,40,20.90
2016,08,21,18,41,35.40
2016,08,21,18,42,24.20
2016,08,21,18,43,22.50
2016,08,21,18,44,27.40
2016,08,21,18,45,25.70
2016,08,21,18,46,37.00
2016,08,21,18,47,33.80
2016,08,21,18,48,32.20
2016,08,21,18,49,27.40
2016,08,21,18,50,19.30
2016,08,21,18,51,24.20
2016,08,21,18,52,24.20
2016,08,21,18,53,27.40
2016,08,21,18,54,27.40
2016,08,21,18,55,29.00
2016,08,21,18,56,25.70
2016,08,21,18,57,25.70
2016,08,21,18,58,22.50
2016,08,21,18,59,25.70
2016,08,21,19,00,33.80
2016,08,21,19,01,24.20
2016,08,21,19,02,27.40
2016,08,21,19,03,35.40
2016,08,21,19,04,29.00
2016,08,21,19,05,30.60
2016,08,21,19,06,29.00
2016,08,21,19,07,30.60
2016,08,21,19,08,27.40
2016,08,21,19,09,24.20
2016,08,21,19,10,25.70
2016,08,21,19,11,20.90
2016,08,21,19,12,17.70
2016,08,21,19,13,24.20
2016,08,21,19,14,22.50
2016,08,21,19,15,20.90
2016,08,21,19,16,25.70
2016,08,21,19,17,24.20
2016,08,21,19,18,25.70
2016,08,21,19,19,17.70
2016,08,21,19,20,19.30
2016,08,21,19,21,22.50
2016,08,21,19,22,25.70
2016,08,21,19,23,19.30
2016,08,21,19,24,16.10
2016,08,21,19,25,17.70
2016,08,21,19,26,20.90
2016,08,21,19,27,16.10
2016,08,21,19,28,22.50
2016,08,21,19,29,16.10
2016,08,21,19,30,17.70
2016,08,21,19,31,19.30
2016,08,21,19,32,29.00
2016,08,21,19,33,20.90
2016,08,21,19,34,19.30
2016,08,21,19,35,27.40
2016,08,21,19,36,25.70
2016,08,21,19,37,20.90
2016,08,21,19,38,24.20
2016,08,21,19,39,24.20
2016,08,21,19,40,29.00
2016,08,21,19,41,35.40
2016,08,21,19,42,20.90
2016,08,21,19,43,22.50
2016,08,21,19,44,27.40
2016,08,21,19,45,27.40
2016,08,21,19,46,29.00
2016,08,21,19,47,24.20
2016,08,21,19,48,25.70
2016,08,21,19,49,25.70
2016,08,21,19,50,29.00
2016,08,21,19,51,24.20
2016,08,21,19,52,22.50
2016,08,21,19,53,22.50
2016,08,21,19,54,14.50
2016,08,21,19,55,17.70
2016,08,21,19,56,22.50
2016,08,21,19,57,32.20
2016,08,21,19,58,32.20
2016,08,21,19,59,27.40
2016,08,21,20,00,33.80
2016,08,21,20,01,33.80
2016,08,21,20,02,17.70
2016,08,21,20,03,24.20
2016,08,21,20,04,27.40
2016,08,21,20,05,30.60
2016,08,21,20,06,32.20
2016,08,21,20,07,16.10
2016,08,21,20,08,29.00
2016,08,21,20,09,25.70
2016,08,21,20,10,25.70
2016,08,21,20,11,25.70
2016,08,21,20,12,33.80
2016,08,21,20,13,25.70
2016,08,21,20,14,27.40
2016,08,21,20,15,29.00
2016,08,21,20,16,20.90
2016,08,21,20,17,27.40
2016,08,21,20,18,20.90
2016,08,21,20,19,24.20
2016,08,21,20,20,22.50
2016,08,21,20,21,25.70
2016,08,21,20,22,22.50
2016,08,21,20,23,33.80
2016,08,21,20,24,35.40
2016,08,21,20,25,32.20
2016,08,21,20,26,25.70
2016,08,21,20,27,19.30
2016,08,21,20,28,20.90
2016,08,21,20,29,27.40
2016,08,21,20,30,29.00
2016,08,21,20,31,29.00
2016,08,21,20,32,20.90
2016,08,21,20,33,19.30
2016,08,21,20,34,20.90
2016,08,21,20,35,19.30
2016,08,21,20,36,24.20
2016,08,21,20,37,22.50
2016,08,21,20,38,22.50
2016,08,21,20,39,22.50
2016,08,21,20,40,19.30
2016,08,21,20,41,22.50
2016,08,21,20,42,32.20
2016,08,21,20,43,30.60
2016,08,21,20,44,24.20
2016,08,21,20,45,30.60
2016,08,21,20,46,25.70
2016,08,21,20,47,32.20
2016,08,21,20,48,33.80
2016,08,21,20,49,35.40
2016,08,21,20,50,25.70
2016,08,21,20,51,25.70
2016,08,21,20,52,30.60
2016,08,21,20,53,25.70